Tracking 22223 objects as of 26-Jan-2021
HD Live streaming from Space Station
objects crossing your sky now

LES 6

Track LES 6 now!
LES 6 is classified as:


NORAD ID: 3431
Int'l Code: 1968-081D
Perigee: 35,727.6 km
Apogee: 35,815.3 km
Inclination: 3.9 °
Period: 1,435.0 minutes
Semi major axis: 42142 km
RCS: 3.1622 m2 (large)
Launch date: September 26, 1968
Source: United States (US)
Launch site: AIR FORCE EASTERN TEST RANGE (AFETR)
aabbcc
Your satellite tracking list
Your tracking list is empty




NASA's NSSDC Master Catalog

Two Line Element Set (TLE):
1 03431U 68081D   21025.46855663 -.00000049  00000-0  00000-0 0  9991
2 03431   3.8675 304.4911 0010409  13.7086 224.8983  1.00351375101040
Source of the keplerian elements: AFSPC